Voltar ao catálogo

STARLINK-31809

AtivoComunicaçõesVLEO
NORAD 59743·PAYLOAD·🇺🇸 United States

Lançado May 13, 2024 de Cape Canaveral Space Force Station

Loading…

Próximas Passagens (próximas 24 horas)

TLE

AtualizadoSource: CelesTrak SupGP

Época: Sep 15, 2026, 02:15 UTC

1 59743C 24090P   26258.09423611 -.00048137  00000+0 -17438-2 0  2589
2 59743  43.0029 186.8468 0001348 273.6217 241.5825 15.27597158    11

Acompanhe STARLINK-31809 em tempo real com AllMySat

Download on the App Store